map of WVB home
Great Circle Mapper logo
WVB - Airport
Location
City:  Walvis Bay, Namibia
Name:Rooikop
ICAO / IATA:FYWB / WVB

Details
Type:Airport (Aerodrome, Airfield)
Use:Public/Civil, International (customs port of entry)
Latitude:2258'48"S (-22.979888)
Longitude:1438'43"E (14.645331)
Datum:other
Elevation:299 ft (91 m)
Variation:13.2W (WMM2010 magnetic declination)
Runways:1
Longest:7001 × 98 ft (2134 × 30 m), paved

Time
Time Zone:UTC+1 (DST+2)
Local Time:

Weather
METAR:FYWB 230800Z AUTO 02002KT //// // ////// 18/13 Q1019
TAF:FYWB 230400Z 2306/2412 05006KT CAVOK
BECMG 2309/2311 33010KT
BECMG 2319/2321 9999 BKN012 PROB30
TEMPO 2323/2404 05005KT 0800 FG OVC008

Related Locations
Nearby:
Farthest:PHHF: 12352 mi / 19878 km
Tern Island [French Frigate Shoals Airport], Hawaii, HI, US

Find:

   beyond  
but within

Other Information
Maps:
NOTAMs:
Links:
Sources:

  
flag of Namibia   

Sectional Chart

Flight Planning
at skyvector.com

Satellite Image

Google Maps Satellite View

 

Copyright © 2004-2014 Karl L. Swartz. All rights reserved.
The Great Circle Mapper name and logo are trademarks of the Great Circle Mapper.
All other trademarks mentioned herein belong to their respective owners.
Please see credits for attibutions and further copyright information.

  Follow gcmap on Facebook Follow gcmap on Twitter

hCard Microformat

Geo Microformat